This is the latest recevied weather packets stored in our database for station/object KJ5MET. If no packets are shown the sender has not sent any weather packets the latest 10 day(s).
| Time | Temp. | Humidity | Pressure | Rain* | Wind** | Luminosity | Snow |
|---|---|---|---|---|---|---|---|
| 1787937397 | 35° C | 62% | 1014.6 hPa | 0 mm | - | - | - |
| 1787937093 | 34.44° C | 63% | 1014.6 hPa | 0 mm | - | - | - |
| 1787936789 | 34.44° C | 63% | 1014.6 hPa | 0 mm | - | - | - |
| 1787936486 | 34.44° C | 64% | 1014.6 hPa | 0 mm | - | - | - |
| 1787936171 | 34.44° C | 65% | 1014.6 hPa | 0 mm | - | - | - |
| 1787935867 | 34.44° C | 64% | 1014.6 hPa | 0 mm | - | - | - |
| 1787935564 | 34.44° C | 63% | 1014.6 hPa | 0 mm | - | - | - |
| 1787935260 | 33.33° C | 65% | 1014.6 hPa | 0 mm | - | - | - |
| 1787934940 | 33.89° C | 67% | 1014.6 hPa | 0 mm | - | - | - |
| 1787934637 | 33.89° C | 67% | 1014.6 hPa | 0 mm | - | - | - |
| 1787934318 | 33.89° C | 65% | 1014.6 hPa | 0 mm | - | - | - |
| 1787934014 | 33.89° C | 67% | 1014.6 hPa | 0 mm | - | - | - |
| 1787933708 | 33.89° C | 66% | 1014.6 hPa | 0 mm | - | - | - |
| 1787933404 | 33.89° C | 66% | 1014.6 hPa | 0 mm | - | - | - |
| 1787933100 | 33.33° C | 69% | 1014.6 hPa | 0 mm | - | - | - |
| 1787932782 | 32.78° C | 70% | 1014.6 hPa | 0 mm | - | - | - |
| 1787932478 | 32.78° C | 69% | 1014.6 hPa | 0 mm | - | - | - |
| 1787932174 | 32.78° C | 70% | 1014.6 hPa | 0 mm | - | - | - |
| 1787931870 | 32.78° C | 70% | 1014.6 hPa | 0 mm | - | - | - |
| 1787931566 | 32.22° C | 73% | 1014.6 hPa | 0 mm | - | - | - |
| 1787931262 | 32.22° C | 73% | 1014.6 hPa | 0 mm | - | - | - |
| 1787930942 | 31.67° C | 75% | 1014.6 hPa | 0 mm | - | - | - |
| 1787930636 | 32.22° C | 76% | 1014.2 hPa | 0 mm | - | - | - |
| 1787930331 | 31.67° C | 78% | 1014.2 hPa | 0 mm | - | - | - |
| 1787930027 | 31.67° C | 76% | 1014.6 hPa | 0 mm | - | - | - |
* Rain latest hour (hover to see other rain measurements)
** Current wind speed in m/s (hover to see current wind gust speed)